EHI
0 0 1 2 4 3 2 1 0 0 0 0 0 0 1 1 2 3 4 12 26 32 30 29 29 27 21 13 7 5 4 3 4 6 5 4 4 5 5 4 4 5 5 2 1 0 0 0 0
0 0 0 1 2 2 1 0 0 0 0 0 0 0 1 1 1 2 4 12 25 31 30 28 29 29 23 14 8 5 4 4 6 8 8 5 4 5 5 4 3 4 4 3 1 0 0 0 0
0 0 0 0 1 1 0 0 0 0 0 0 0 1 1 1 0 1 3 11 23 31 29 28 30 31 27 18 9 6 5 6 8 11 10 6 5 6 5 4 4 4 4 3 1 0 0 0 0
0 0 0 0 0 0 0 0 0 0 0 0 0 1 2 2 2 2 3 10 22 31 31 29 31 32 29 22 13 8 6 6 8 10 10 7 7 7 7 5 5 5 5 3 1 0 0 0 0
0 0 0 0 0 0 0 0 0 0 0 0 1 3 4 5 6 5 5 10 23 33 33 30 30 31 29 25 18 11 8 8 9 9 9 9 9 9 8 6 5 4 4 3 1 1 1 1 1
0 0 0 0 0 0 0 0 0 0 0 0 2 5 7 9 10 8 6 11 23 33 32 28 28 28 27 24 18 12 11 13 13 10 9 11 12 10 8 6 4 3 3 3 3 2 3 3 3
0 0 0 0 0 0 0 0 0 0 0 0 2 6 12 15 13 10 8 12 20 27 27 25 24 23 20 18 15 12 13 14 14 10 9 11 12 10 7 5 5 4 4 3 3 3 4 5 4
0 0 0 0 0 0 0 0 0 0 0 0 2 8 17 20 16 12 11 15 20 23 24 24 22 19 15 13 12 12 12 12 11 9 8 9 10 8 5 5 6 5 4 4 4 3 4 4 4
0 0 0 0 0 0 0 0 0 0 0 1 4 12 20 23 20 18 17 19 21 22 23 26 26 21 15 11 12 12 11 10 9 9 8 8 8 6 5 6 9 7 5 4 4 3 3 4 4
0 0 0 0 0 0 0 0 0 0 1 4 8 14 21 23 23 22 21 21 22 22 22 25 28 24 16 13 13 12 11 10 10 9 8 7 7 6 6 8 9 7 4 2 2 3 3 3 4
0 0 0 0 0 0 0 0 0 0 2 5 9 12 17 20 21 21 22 23 22 22 21 22 25 24 19 17 14 12 11 10 10 9 8 7 6 7 8 9 9 6 3 2 2 2 2 3 3
0 0 0 0 0 0 0 0 0 0 2 5 8 9 12 15 17 19 21 24 25 25 24 24 26 26 24 22 17 14 12 11 10 9 7 6 6 7 9 11 9 6 4 4 4 3 2 2 2
0 0 0 0 1 1 1 0 0 1 4 7 7 7 9 12 14 17 21 26 31 32 31 30 31 32 30 27 21 16 15 13 12 11 8 5 6 8 11 12 10 8 7 7 6 5 4 2 1
0 0 0 1 2 2 2 1 0 1 5 7 6 5 7 10 14 18 23 31 36 38 38 37 37 37 35 30 23 18 17 16 16 15 11 7 8 12 13 13 10 8 8 9 7 6 4 1 0
0 0 0 1 2 3 2 1 0 2 6 7 5 4 6 10 15 21 27 33 37 41 43 42 40 38 37 31 24 19 18 17 19 19 17 13 13 16 16 13 10 8 9 10 9 6 4 2 0
0 0 0 1 3 3 2 1 1 3 5 6 5 6 8 11 16 23 28 33 38 42 45 45 41 38 37 33 27 22 19 18 20 21 21 19 19 19 18 15 12 11 11 12 10 8 5 3 1
0 0 1 2 3 3 2 2 3 3 4 5 6 8 12 13 16 22 29 33 38 44 48 48 45 41 38 34 31 26 23 23 22 22 23 24 24 23 21 18 16 14 13 12 11 10 8 4 1
0 0 1 2 3 2 1 1 2 2 1 3 6 10 13 14 15 21 27 32 38 46 52 53 51 47 42 36 32 28 26 25 23 22 25 28 28 25 22 20 18 17 15 13 12 12 10 5 2
0 0 0 1 2 1 0 1 2 1 0 3 7 10 13 15 18 21 24 30 37 46 53 56 54 50 45 39 33 29 26 25 23 22 25 28 28 26 23 21 20 18 15 13 12 12 10 6 3
0 0 0 1 1 0 0 1 1 1 1 3 8 12 14 17 21 22 23 28 37 45 51 55 54 51 46 42 36 32 29 27 24 23 25 27 27 26 23 22 20 16 14 13 13 12 9 5 4
0 0 0 0 0 0 0 1 2 3 2 3 8 12 15 18 22 23 25 30 38 45 49 52 54 51 47 45 40 36 34 30 27 27 27 26 25 25 24 21 18 14 12 12 13 13 10 6 4
0 0 0 1 1 0 0 1 4 5 3 3 7 12 16 20 24 26 28 34 41 45 48 53 56 52 49 47 42 38 36 32 30 30 28 26 23 22 22 20 17 15 13 13 13 12 10 7 5
0 0 1 2 2 1 0 1 3 6 5 5 9 14 19 23 27 31 33 37 41 42 45 53 56 54 50 47 43 40 37 33 31 30 27 25 22 20 20 19 18 16 14 14 14 12 10 9 8
0 0 1 2 3 2 1 1 3 5 7 9 12 17 22 24 27 32 35 37 38 39 43 49 53 52 50 48 44 41 38 34 31 29 27 24 22 20 19 18 18 17 15 15 15 13 11 10 10
0 0 1 1 2 2 1 1 4 6 8 10 13 17 20 21 23 29 34 35 37 40 43 47 50 50 48 47 46 42 37 32 31 31 28 24 22 22 20 19 19 18 16 14 13 12 10 10 11
0 0 0 0 1 1 1 3 5 7 8 9 11 14 16 18 23 29 33 35 38 43 46 47 48 46 43 42 42 39 32 28 29 31 29 25 22 21 19 18 19 19 16 13 12 11 9 9 11
0 0 0 0 0 0 1 4 7 8 8 7 9 12 16 19 25 32 35 37 39 43 44 45 45 42 37 34 32 30 26 24 26 28 27 23 20 19 18 16 15 16 14 14 13 11 9 10 11
0 0 0 0 0 0 0 3 6 8 8 6 9 15 19 21 27 34 37 37 38 39 38 38 39 37 32 26 22 20 21 21 23 24 22 19 17 17 17 15 12 11 12 15 15 13 11 11 10
0 0 0 0 0 0 0 2 5 7 8 7 10 17 20 21 26 32 35 34 34 34 33 32 31 30 26 21 17 17 18 18 18 19 16 14 13 15 16 15 12 10 11 13 13 12 11 10 9
0 0 0 0 0 0 0 1 5 8 10 9 11 17 19 19 23 28 31 31 32 32 31 30 28 24 22 19 17 17 16 15 15 15 14 12 11 12 14 15 13 12 12 11 10 9 10 9 8
Wind_Speed
8 11 10 8 7 6 6 2 5 7 8 9 8 8 11 11 9 8 8 11 15 16 14 13 13 12 11 11 10 9 9 9 8 8 8 9 9 8 8 8 8 8 8 8 7 7 7 7 7
10 13 10 7 7 4 4 2 6 7 7 6 6 9 9 10 11 11 10 10 15 16 14 13 13 12 11 11 10 9 9 9 8 8 8 8 8 8 8 8 8 8 7 7 7 6 6 6 6
12 16 9 8 8 5 5 4 6 6 6 5 6 8 8 7 9 9 10 10 14 16 15 14 14 12 11 11 10 9 9 9 8 8 8 8 8 7 7 8 8 7 7 7 6 6 6 6 5
9 9 8 9 8 5 3 4 5 3 4 4 5 6 8 8 9 11 10 10 14 16 16 15 14 12 11 10 10 9 9 9 8 8 8 8 7 8 7 7 6 6 6 6 6 6 5 5 4
10 9 11 11 8 5 1 3 2 1 2 4 5 7 8 11 12 12 9 9 13 15 15 15 14 12 11 10 10 9 9 8 8 7 7 7 7 7 7 7 6 5 5 5 6 6 5 4 3
9 9 10 9 7 4 1 3 1 2 1 3 4 7 8 11 11 10 9 9 12 15 14 13 15 13 12 11 10 9 8 7 7 7 7 6 6 6 6 6 6 5 5 5 5 5 4 3 3
11 11 13 13 7 6 1 2 2 2 1 2 2 6 9 10 10 9 9 10 12 14 13 12 12 11 12 12 10 9 8 7 7 7 6 7 6 6 6 5 5 5 5 5 5 5 4 3 2
11 11 15 13 9 6 2 1 1 2 1 3 2 3 9 12 10 9 9 9 10 11 12 11 11 11 10 10 11 10 9 8 8 7 7 7 7 7 7 6 5 5 5 5 5 5 4 3 3
14 12 13 13 8 5 2 2 0 1 1 2 3 4 12 15 12 10 9 8 8 9 10 10 10 10 10 10 11 11 10 9 8 8 9 8 6 6 6 6 7 6 5 5 5 5 4 4 5
12 11 13 11 7 8 5 4 4 3 4 3 5 8 13 14 11 10 10 9 9 9 9 9 9 9 8 7 8 6 7 7 6 5 6 5 3 4 6 8 8 7 6 6 5 4 5 5 3
13 15 13 12 9 9 7 5 6 6 4 3 4 8 11 13 12 10 10 9 9 9 7 7 8 7 7 5 5 4 3 4 4 5 5 4 3 3 4 4 5 5 6 4 4 4 3 2 1
15 15 14 12 10 9 9 8 7 7 4 3 4 5 9 11 11 9 9 9 8 8 8 7 7 6 6 5 4 4 3 3 3 3 3 3 2 2 3 2 3 3 2 2 2 1 1 1 1
16 15 13 13 11 11 10 10 9 8 4 5 7 8 9 9 9 9 9 9 9 8 8 8 7 6 4 4 3 4 3 3 3 3 3 2 2 2 3 2 1 2 2 2 1 1 1 1 1
14 14 14 13 12 12 12 13 12 10 7 8 9 9 9 8 7 7 8 9 9 8 8 7 7 7 5 4 3 3 3 3 3 3 3 2 2 2 2 2 1 1 1 1 1 1 1 1 1
15 16 16 15 14 12 11 14 13 8 7 9 9 9 9 8 8 8 8 8 8 8 8 8 8 7 5 5 4 3 2 3 3 3 4 3 2 3 2 2 2 1 1 1 1 1 1 2 2
16 16 16 15 13 10 11 13 7 7 9 9 10 9 7 7 8 8 8 8 8 9 8 7 7 8 6 4 3 2 2 3 3 3 3 3 3 3 2 2 2 1 1 1 1 1 1 1 1
16 15 15 13 10 10 12 12 7 7 8 8 9 8 8 6 7 8 8 9 9 9 9 7 6 7 6 5 3 3 2 2 2 3 3 4 4 4 2 2 2 2 1 1 1 1 0 1 1
13 12 13 13 9 10 12 11 7 8 9 9 9 8 7 6 7 7 7 8 9 10 9 8 7 6 5 4 3 2 2 2 2 2 3 4 3 3 2 2 2 1 2 1 1 1 0 1 1
15 15 14 14 10 10 12 11 9 8 9 8 8 8 7 7 8 9 8 8 9 10 9 8 8 7 5 4 4 3 3 3 3 3 4 4 3 3 2 2 2 1 1 2 1 1 1 1 1
17 17 16 13 10 10 12 12 9 9 9 9 8 8 8 8 7 7 8 8 9 9 10 9 7 7 6 4 3 3 3 3 3 2 4 4 3 3 3 2 2 2 1 2 1 1 1 1 1
17 15 14 12 11 11 11 11 8 7 8 7 7 6 6 7 8 7 8 8 9 10 10 8 8 7 6 6 4 3 2 2 3 3 3 3 3 3 2 3 2 1 1 1 2 2 2 1 1
15 13 14 13 12 10 11 10 6 8 8 7 7 6 7 7 7 6 6 7 8 10 10 9 8 7 6 6 5 5 4 3 3 3 3 4 4 4 3 3 2 2 1 1 2 2 2 2 2
14 12 14 14 13 13 12 10 6 7 8 8 8 8 7 7 8 7 6 5 7 8 10 10 9 7 6 6 5 4 4 3 3 3 4 4 4 4 4 3 3 2 2 2 2 2 2 2 2
13 14 14 13 12 13 12 10 7 6 7 7 7 7 7 7 8 8 7 6 6 7 9 9 9 8 6 5 5 4 3 3 3 3 4 3 3 3 4 4 3 3 3 3 3 3 3 3 2
11 10 8 8 9 10 8 9 6 5 6 6 7 7 7 7 8 9 9 7 7 7 7 9 9 8 7 6 5 4 3 3 3 3 4 3 3 3 4 4 3 3 3 3 3 3 3 3 3
12 12 9 9 9 8 8 8 4 5 5 6 7 7 7 6 7 8 8 8 7 8 7 7 8 7 7 6 5 4 4 3 3 3 3 3 2 3 3 4 4 4 4 4 3 3 3 3 3
13 12 10 10 13 12 7 5 4 4 4 5 7 7 8 6 5 7 7 6 6 7 7 7 7 6 6 6 5 4 4 3 2 3 2 2 2 3 3 3 3 3 4 4 4 3 3 3 3
12 9 6 8 9 10 9 6 2 4 5 5 6 7 7 7 7 6 6 6 5 6 7 6 6 6 5 4 4 4 4 3 3 3 3 2 2 2 3 3 3 4 4 4 4 3 3 3 3
10 10 9 8 8 8 8 3 1 1 2 3 4 6 6 7 7 7 6 6 5 6 6 6 5 4 4 4 3 3 4 4 3 3 3 2 2 2 2 3 3 3 4 3 3 3 3 4 3
9 9 8 7 7 8 8 4 2 3 2 2 2 5 6 6 6 7 6 6 5 6 5 5 5 4 4 3 2 2 3 4 4 3 3 3 3 3 2 2 3 3 3 3 4 4 4 3 3
Wind_Direction
235 241 235 247 246 250 280 327 59 50 54 52 39 44 51 43 49 81 98 96 104 111 117 119 119 122 123 120 116 113 111 112 108 104 102 98 95 94 96 97 97 94 93 94 95 104 104 99 99
255 250 242 245 255 270 289 33 66 60 56 54 57 65 67 63 75 97 101 105 113 116 122 121 122 123 127 126 123 119 116 116 114 111 108 103 98 97 95 95 94 92 90 91 89 95 106 104 105
260 261 260 248 243 260 301 40 78 77 68 59 64 64 63 73 82 96 110 122 119 119 121 122 126 123 127 131 130 126 121 119 119 117 115 111 108 105 99 93 89 88 89 88 85 85 99 105 110
255 246 238 255 268 266 295 16 44 79 82 69 74 82 76 75 90 107 124 130 121 121 122 127 129 126 126 131 130 129 128 125 124 120 118 116 115 111 105 99 94 93 93 92 92 90 90 96 105
246 257 255 261 270 278 309 52 29 3 88 79 90 101 94 97 107 117 129 128 123 121 121 128 131 131 131 131 132 131 130 129 128 126 124 122 121 117 115 113 111 106 103 101 100 96 100 105 108
250 257 265 268 270 278 303 57 336 298 93 107 106 112 108 117 121 127 129 126 121 120 122 131 138 138 137 136 133 132 129 132 132 132 133 133 131 130 130 130 131 124 119 112 109 100 105 120 127
256 271 273 277 276 277 290 63 336 318 74 89 90 121 126 124 126 132 129 126 122 124 130 137 142 143 143 140 138 136 135 134 140 142 146 149 149 149 144 145 144 140 132 122 117 119 126 137 151
258 273 278 278 277 273 79 58 52 338 56 91 86 114 133 133 140 139 134 128 130 132 134 143 148 149 149 147 149 149 149 150 154 163 169 168 167 163 159 154 142 145 143 142 140 138 143 162 174
253 260 270 278 297 318 14 332 45 220 217 131 115 116 133 139 146 143 139 137 136 136 141 148 147 151 154 153 152 158 162 165 169 178 186 188 184 171 169 144 149 158 160 158 159 161 166 181 191
242 253 262 277 306 305 315 323 295 242 225 173 150 133 136 143 151 154 150 152 148 149 151 150 146 148 150 148 149 163 165 164 182 172 179 192 188 172 155 148 160 171 180 182 185 186 197 207 197
245 254 268 282 298 300 300 285 278 271 250 206 174 152 152 157 162 164 159 159 157 149 146 139 139 142 146 142 152 158 161 156 179 170 176 189 184 160 144 156 166 182 189 198 179 204 218 207 157
245 253 262 275 287 288 287 283 279 277 260 194 157 162 173 171 167 170 164 161 150 147 146 140 140 141 143 137 149 157 156 157 160 150 182 174 181 162 149 159 165 177 181 178 169 218 188 156 120
252 255 259 264 264 270 269 266 263 260 222 177 176 188 196 179 170 167 163 157 147 150 147 143 137 137 133 128 156 152 158 155 153 155 170 170 180 164 147 143 161 170 154 166 166 195 151 134 105
266 268 265 264 263 256 258 258 248 236 213 195 191 194 196 185 169 161 156 151 149 150 146 140 140 139 139 141 149 147 156 146 155 151 153 176 165 140 138 145 147 161 125 128 161 162 152 128 98
268 269 266 259 252 251 252 256 246 219 205 202 203 200 188 176 174 164 163 152 150 146 141 142 146 143 151 155 167 150 148 146 150 145 155 170 157 137 141 150 159 157 142 141 144 148 181 190 180
266 260 260 255 243 235 243 260 245 196 201 202 203 200 183 177 180 167 161 154 151 147 143 149 154 148 156 156 159 144 147 148 154 150 151 161 160 154 157 159 149 158 150 144 147 191 213 194 176
254 250 256 261 243 241 245 253 224 197 205 202 199 190 183 177 183 170 167 161 154 148 144 148 142 146 155 154 154 147 139 143 155 152 148 155 164 160 162 153 139 162 145 137 183 136 188 229 202
255 256 257 261 251 251 255 257 223 214 211 206 197 191 181 183 190 170 159 156 148 145 143 146 146 147 154 154 155 157 160 147 141 136 134 140 158 163 158 153 136 157 139 131 115 95 95 310 251
267 274 278 278 270 267 263 260 232 215 220 204 195 188 188 187 182 163 159 156 147 146 148 151 156 153 157 158 171 176 173 166 159 150 136 149 161 159 165 150 135 163 142 140 155 144 186 220 232
257 265 271 275 269 269 269 264 242 213 215 205 198 188 187 188 167 159 161 159 153 155 156 156 155 160 165 161 167 171 168 168 153 137 134 154 157 151 168 137 148 142 148 153 152 162 236 247 202
256 263 269 273 274 264 265 260 237 216 215 202 196 193 185 177 168 161 161 166 161 157 158 160 160 163 170 165 167 168 166 175 155 148 150 157 154 156 153 154 162 165 181 154 188 192 214 237 250
260 265 272 274 275 271 262 264 225 207 210 203 199 196 187 168 152 149 173 170 163 160 159 156 155 159 166 168 173 178 177 178 161 152 148 158 161 163 165 163 175 188 184 169 212 184 214 225 246
263 270 270 268 266 266 260 262 243 205 205 204 197 191 178 158 152 160 169 172 164 160 158 156 154 157 163 170 176 186 183 169 155 154 149 164 165 173 174 170 179 184 200 194 212 210 220 234 242
260 267 268 263 263 259 256 255 249 221 205 194 179 174 165 160 162 161 162 153 152 154 151 149 153 158 164 174 174 187 182 160 158 169 162 174 172 175 174 180 184 189 204 200 208 216 220 235 253
253 257 263 260 247 250 238 238 238 207 184 175 159 161 161 163 163 163 159 146 152 150 149 147 153 159 163 171 174 179 183 177 176 183 172 180 178 173 180 192 186 197 208 209 208 215 223 227 240
247 243 245 260 266 269 245 234 219 184 152 146 143 151 153 161 163 151 142 141 151 143 139 142 148 154 161 169 172 172 180 192 182 188 193 183 179 178 182 194 195 200 205 213 203 221 225 222 230
249 245 250 263 272 275 260 229 196 132 139 145 144 146 149 160 152 138 134 134 134 138 137 142 146 149 159 167 167 173 177 187 185 183 197 190 202 195 181 195 202 208 206 210 205 218 217 218 220
247 252 249 248 264 271 269 242 206 191 184 168 164 151 154 152 143 134 130 128 132 133 128 127 140 154 162 170 178 168 163 169 190 188 187 200 205 218 186 197 202 212 212 208 210 219 211 207 212
242 242 250 256 259 268 275 280 107 238 156 168 166 150 156 149 141 133 128 124 126 128 130 132 136 150 161 168 163 160 171 177 185 188 186 190 202 211 205 203 204 208 211 206 211 222 206 204 215
255 255 246 253 263 272 277 274 127 109 117 135 145 145 141 139 138 133 129 129 132 130 134 141 150 162 162 156 151 172 177 180 186 189 182 183 192 208 205 205 212 211 202 200 210 220 219 205 213